Year,Month,Day,Hour,Minute,Value (Times are PST for temperature in C)
2023,10,28,00,00,-1.20
2023,10,28,00,01,-1.20
2023,10,28,00,02,-1.20
2023,10,28,00,03,-1.20
2023,10,28,00,04,-1.20
2023,10,28,00,05,-1.20
2023,10,28,00,06,-1.20
2023,10,28,00,07,-1.20
2023,10,28,00,08,-1.20
2023,10,28,00,09,-1.20
2023,10,28,00,10,-1.20
2023,10,28,00,11,-1.30
2023,10,28,00,12,-1.30
2023,10,28,00,13,-1.30
2023,10,28,00,14,-1.30
2023,10,28,00,15,-1.30
2023,10,28,00,16,-1.30
2023,10,28,00,17,-1.30
2023,10,28,00,18,-1.30
2023,10,28,00,19,-1.30
2023,10,28,00,20,-1.30
2023,10,28,00,21,-1.30
2023,10,28,00,22,-1.30
2023,10,28,00,23,-1.30
2023,10,28,00,24,-1.30
2023,10,28,00,25,-1.30
2023,10,28,00,26,-1.30
2023,10,28,00,27,-1.30
2023,10,28,00,28,-1.30
2023,10,28,00,29,-1.30
2023,10,28,00,30,-1.30
2023,10,28,00,31,-1.30
2023,10,28,00,32,-1.30
2023,10,28,00,33,-1.30
2023,10,28,00,34,-1.30
2023,10,28,00,35,-1.40
2023,10,28,00,36,-1.40
2023,10,28,00,37,-1.40
2023,10,28,00,38,-1.40
2023,10,28,00,39,-1.40
2023,10,28,00,40,-1.40
2023,10,28,00,41,-1.50
2023,10,28,00,42,-1.50
2023,10,28,00,43,-1.50
2023,10,28,00,44,-1.50
2023,10,28,00,45,-1.50
2023,10,28,00,46,-1.50
2023,10,28,00,47,-1.60
2023,10,28,00,48,-1.60
2023,10,28,00,49,-1.60
2023,10,28,00,50,-1.60
2023,10,28,00,51,-1.60
2023,10,28,00,52,-1.60
2023,10,28,00,53,-1.50
2023,10,28,00,54,-1.50
2023,10,28,00,55,-1.50
2023,10,28,00,56,-1.50
2023,10,28,00,57,-1.50
2023,10,28,00,58,-1.50
2023,10,28,00,59,-1.50
2023,10,28,01,00,-1.50
2023,10,28,01,01,-1.50
2023,10,28,01,02,-1.50
2023,10,28,01,03,-1.50
2023,10,28,01,04,-1.50
2023,10,28,01,05,-1.50
2023,10,28,01,06,-1.50
2023,10,28,01,07,-1.50
2023,10,28,01,08,-1.50
2023,10,28,01,09,-1.60
2023,10,28,01,10,-1.60
2023,10,28,01,11,-1.60
2023,10,28,01,12,-1.60
2023,10,28,01,13,-1.60
2023,10,28,01,14,-1.60
2023,10,28,01,15,-1.60
2023,10,28,01,16,-1.70
2023,10,28,01,17,-1.70
2023,10,28,01,18,-1.70
2023,10,28,01,19,-1.70
2023,10,28,01,20,-1.70
2023,10,28,01,21,-1.70
2023,10,28,01,22,-1.80
2023,10,28,01,23,-1.80
2023,10,28,01,24,-1.80
2023,10,28,01,25,-1.80
2023,10,28,01,26,-1.80
2023,10,28,01,27,-1.80
2023,10,28,01,28,-1.80
2023,10,28,01,29,-1.80
2023,10,28,01,30,-1.80
2023,10,28,01,31,-1.90
2023,10,28,01,32,-1.90
2023,10,28,01,33,-1.90
2023,10,28,01,34,-1.90
2023,10,28,01,35,-1.90
2023,10,28,01,36,-1.90
2023,10,28,01,37,-1.90
2023,10,28,01,38,-1.90
2023,10,28,01,39,-1.90
2023,10,28,01,40,-2.00
2023,10,28,01,41,-2.00
2023,10,28,01,42,-2.00
2023,10,28,01,43,-2.00
2023,10,28,01,44,-2.00
2023,10,28,01,45,-2.00
2023,10,28,01,46,-2.00
2023,10,28,01,47,-2.00
2023,10,28,01,48,-2.00
2023,10,28,01,49,-2.10
2023,10,28,01,50,-2.10
2023,10,28,01,51,-2.10
2023,10,28,01,52,-2.10
2023,10,28,01,53,-2.10
2023,10,28,01,54,-2.10
2023,10,28,01,55,-2.10
2023,10,28,01,56,-2.10
2023,10,28,01,57,-2.10
2023,10,28,01,58,-2.10
2023,10,28,01,59,-2.10
2023,10,28,02,00,-2.10
2023,10,28,02,01,-2.10
2023,10,28,02,02,-2.10
2023,10,28,02,03,-2.10
2023,10,28,02,04,-2.10
2023,10,28,02,05,-2.10
2023,10,28,02,06,-2.10
2023,10,28,02,07,-2.10
2023,10,28,02,08,-2.10
2023,10,28,02,09,-2.10
2023,10,28,02,10,-2.10
2023,10,28,02,11,-2.10
2023,10,28,02,12,-2.10
2023,10,28,02,13,-2.10
2023,10,28,02,14,-2.10
2023,10,28,02,15,-2.10
2023,10,28,02,16,-2.10
2023,10,28,02,17,-2.10
2023,10,28,02,18,-2.10
2023,10,28,02,19,-2.10
2023,10,28,02,20,-2.10
2023,10,28,02,21,-2.10
2023,10,28,02,22,-2.10
2023,10,28,02,23,-2.10
2023,10,28,02,24,-2.10
2023,10,28,02,25,-2.10
2023,10,28,02,26,-2.10
2023,10,28,02,27,-2.10
2023,10,28,02,28,-2.10
2023,10,28,02,29,-2.10
2023,10,28,02,30,-2.10
2023,10,28,02,31,-2.10
2023,10,28,02,32,-2.10
2023,10,28,02,33,-2.10
2023,10,28,02,34,-2.10
2023,10,28,02,35,-2.10
2023,10,28,02,36,-2.10
2023,10,28,02,37,-2.10
2023,10,28,02,38,-2.10
2023,10,28,02,39,-2.10
2023,10,28,02,40,-2.00
2023,10,28,02,41,-2.00
2023,10,28,02,42,-2.00
2023,10,28,02,43,-2.00
2023,10,28,02,44,-2.00
2023,10,28,02,45,-2.00
2023,10,28,02,46,-2.00
2023,10,28,02,47,-2.00
2023,10,28,02,48,-1.90
2023,10,28,02,49,-1.90
2023,10,28,02,50,-1.90
2023,10,28,02,51,-1.90
2023,10,28,02,52,-1.90
2023,10,28,02,53,-1.90
2023,10,28,02,54,-1.90
2023,10,28,02,55,-1.90
2023,10,28,02,56,-1.90
2023,10,28,02,57,-1.90
2023,10,28,02,58,-1.90
2023,10,28,02,59,-1.90
2023,10,28,03,00,-1.90
2023,10,28,03,01,-2.00
2023,10,28,03,02,-2.00
2023,10,28,03,03,-2.00
2023,10,28,03,04,-2.00
2023,10,28,03,05,-2.10
2023,10,28,03,06,-2.10
2023,10,28,03,07,-2.10
2023,10,28,03,08,-2.10
2023,10,28,03,09,-2.10
2023,10,28,03,10,-2.10
2023,10,28,03,11,-2.10
2023,10,28,03,12,-2.20
2023,10,28,03,13,-2.20
2023,10,28,03,14,-2.20
2023,10,28,03,15,-2.20
2023,10,28,03,16,-2.20
2023,10,28,03,17,-2.20
2023,10,28,03,18,-2.20
2023,10,28,03,19,-2.20
2023,10,28,03,20,-2.20
2023,10,28,03,21,-2.20
2023,10,28,03,22,-2.20
2023,10,28,03,23,-2.20
2023,10,28,03,24,-2.20
2023,10,28,03,25,-2.20
2023,10,28,03,26,-2.10
2023,10,28,03,27,-2.10
2023,10,28,03,28,-2.10
2023,10,28,03,29,-2.10
2023,10,28,03,30,-2.10
2023,10,28,03,31,-2.10
2023,10,28,03,32,-2.10
2023,10,28,03,33,-2.10
2023,10,28,03,34,-2.10
2023,10,28,03,35,-2.10
2023,10,28,03,36,-2.10
2023,10,28,03,37,-2.20
2023,10,28,03,38,-2.20
2023,10,28,03,39,-2.10
2023,10,28,03,40,-2.10
2023,10,28,03,41,-2.10
2023,10,28,03,42,-2.10
2023,10,28,03,43,-2.10
2023,10,28,03,44,-2.10
2023,10,28,03,45,-2.20
2023,10,28,03,46,-2.20
2023,10,28,03,47,-2.10
2023,10,28,03,48,-2.10
2023,10,28,03,49,-2.10
2023,10,28,03,50,-2.10
2023,10,28,03,51,-2.10
2023,10,28,03,52,-2.10
2023,10,28,03,53,-2.10
2023,10,28,03,54,-2.10
2023,10,28,03,55,-2.10
2023,10,28,03,56,-2.10
2023,10,28,03,57,-2.10
2023,10,28,03,58,-2.10
2023,10,28,03,59,-2.10
2023,10,28,04,00,-2.10
2023,10,28,04,01,-2.10
2023,10,28,04,02,-2.00
2023,10,28,04,03,-2.00
2023,10,28,04,04,-2.00
2023,10,28,04,05,-2.00
2023,10,28,04,06,-1.90
2023,10,28,04,07,-2.00
2023,10,28,04,08,-2.00
2023,10,28,04,09,-2.00
2023,10,28,04,10,-2.00
2023,10,28,04,11,-2.00
2023,10,28,04,12,-2.00
2023,10,28,04,13,-2.00
2023,10,28,04,14,-2.00
2023,10,28,04,15,-2.00
2023,10,28,04,16,-2.00
2023,10,28,04,17,-2.00
2023,10,28,04,18,-1.90
2023,10,28,04,19,-1.90
2023,10,28,04,20,-1.90
2023,10,28,04,21,-1.90
2023,10,28,04,22,-1.90
2023,10,28,04,23,-1.90
2023,10,28,04,24,-1.90
2023,10,28,04,25,-1.90
2023,10,28,04,26,-1.90
2023,10,28,04,27,-1.90
2023,10,28,04,28,-1.90
2023,10,28,04,29,-1.90
2023,10,28,04,30,-1.90
2023,10,28,04,31,-1.90
2023,10,28,04,32,-1.90
2023,10,28,04,33,-1.90
2023,10,28,04,34,-1.90
2023,10,28,04,35,-1.90
2023,10,28,04,36,-1.90
2023,10,28,04,37,-1.90
2023,10,28,04,38,-1.90
2023,10,28,04,39,-1.90
2023,10,28,04,40,-1.90
2023,10,28,04,41,-1.90
2023,10,28,04,42,-1.90
2023,10,28,04,43,-1.90
2023,10,28,04,44,-1.90
2023,10,28,04,45,-1.90
2023,10,28,04,46,-1.90
2023,10,28,04,47,-1.90
2023,10,28,04,48,-1.90
2023,10,28,04,49,-1.90
2023,10,28,04,50,-2.00
2023,10,28,04,51,-2.00
2023,10,28,04,52,-2.00
2023,10,28,04,53,-2.10
2023,10,28,04,54,-2.10
2023,10,28,04,55,-2.10
2023,10,28,04,56,-2.10
2023,10,28,04,57,-2.10
2023,10,28,04,58,-2.00
2023,10,28,04,59,-2.00
2023,10,28,05,00,-2.00
2023,10,28,05,01,-2.10
2023,10,28,05,02,-2.10
2023,10,28,05,03,-2.10
2023,10,28,05,04,-2.00
2023,10,28,05,05,-2.00
2023,10,28,05,06,-2.00
2023,10,28,05,07,-1.90
2023,10,28,05,08,-1.90
2023,10,28,05,09,-1.90
2023,10,28,05,10,-1.80
2023,10,28,05,11,-1.80
2023,10,28,05,12,-1.80
2023,10,28,05,13,-1.80
2023,10,28,05,14,-1.80
2023,10,28,05,15,-1.80
2023,10,28,05,16,-1.80
2023,10,28,05,17,-1.80
2023,10,28,05,18,-1.80
2023,10,28,05,19,-1.80
2023,10,28,05,20,-1.80
2023,10,28,05,21,-1.80
2023,10,28,05,22,-1.90
2023,10,28,05,23,-1.90
2023,10,28,05,24,-1.90
2023,10,28,05,25,-1.90
2023,10,28,05,26,-1.90
2023,10,28,05,27,-1.90
2023,10,28,05,28,-1.80
2023,10,28,05,29,-1.80
2023,10,28,05,30,-1.80
2023,10,28,05,31,-1.80
2023,10,28,05,32,-1.80
2023,10,28,05,33,-1.70
2023,10,28,05,34,-1.70
2023,10,28,05,35,-1.70
2023,10,28,05,36,-1.70
2023,10,28,05,37,-1.70
2023,10,28,05,38,-1.70
2023,10,28,05,39,-1.70
2023,10,28,05,40,-1.70
2023,10,28,05,41,-1.70
2023,10,28,05,42,-1.70
2023,10,28,05,43,-1.70
2023,10,28,05,44,-1.70
2023,10,28,05,45,-1.70
2023,10,28,05,46,-1.70
2023,10,28,05,47,-1.70
2023,10,28,05,48,-1.70
2023,10,28,05,49,-1.80
2023,10,28,05,50,-1.80
2023,10,28,05,51,-1.80
2023,10,28,05,52,-1.80
2023,10,28,05,53,-1.80
2023,10,28,05,54,-1.80
2023,10,28,05,55,-1.80
2023,10,28,05,56,-1.80
2023,10,28,05,57,-1.90
2023,10,28,05,58,-1.90
2023,10,28,05,59,-1.90
2023,10,28,06,00,-1.90
2023,10,28,06,01,-1.90
2023,10,28,06,02,-1.90
2023,10,28,06,03,-1.90
2023,10,28,06,04,-1.90
2023,10,28,06,05,-2.00
2023,10,28,06,06,-2.00
2023,10,28,06,07,-2.00
2023,10,28,06,08,-2.00
2023,10,28,06,09,-2.00
2023,10,28,06,10,-2.00
2023,10,28,06,11,-2.00
2023,10,28,06,12,-1.90
2023,10,28,06,13,-1.90
2023,10,28,06,14,-1.90
2023,10,28,06,15,-1.90
2023,10,28,06,16,-1.80
2023,10,28,06,17,-1.80
2023,10,28,06,18,-1.90
2023,10,28,06,19,-1.90
2023,10,28,06,20,-1.90
2023,10,28,06,21,-1.90
2023,10,28,06,22,-1.90
2023,10,28,06,23,-1.90
2023,10,28,06,24,-1.90
2023,10,28,06,25,-1.90
2023,10,28,06,26,-1.90
2023,10,28,06,27,-1.90
2023,10,28,06,28,-2.00
2023,10,28,06,29,-2.00
2023,10,28,06,30,-2.00
2023,10,28,06,31,-2.00
2023,10,28,06,32,-1.90
2023,10,28,06,33,-1.90
2023,10,28,06,34,-1.90
2023,10,28,06,35,-1.90
2023,10,28,06,36,-1.90
2023,10,28,06,37,-1.90
2023,10,28,06,38,-1.90
2023,10,28,06,39,-1.90
2023,10,28,06,40,-1.90
2023,10,28,06,41,-1.90
2023,10,28,06,42,-1.90
2023,10,28,06,43,-1.90
2023,10,28,06,44,-1.90
2023,10,28,06,45,-1.90
2023,10,28,06,46,-1.90
2023,10,28,06,47,-1.90
2023,10,28,06,48,-1.90
2023,10,28,06,49,-1.90
2023,10,28,06,50,-1.90
2023,10,28,06,51,-1.90
2023,10,28,06,52,-1.90
2023,10,28,06,53,-1.90
2023,10,28,06,54,-1.90
2023,10,28,06,55,-1.90
2023,10,28,06,56,-1.90
2023,10,28,06,57,-1.90
2023,10,28,06,58,-1.90
2023,10,28,06,59,-1.90
2023,10,28,07,00,-1.90
2023,10,28,07,01,-1.90
2023,10,28,07,02,-1.90
2023,10,28,07,03,-1.90
2023,10,28,07,04,-1.90
2023,10,28,08,28,-1.50
2023,10,28,08,29,-1.40
2023,10,28,08,30,-1.40
2023,10,28,08,31,-1.30
2023,10,28,08,32,-1.20
2023,10,28,08,33,-1.10
2023,10,28,08,34,-1.00
2023,10,28,08,35,-0.90
2023,10,28,08,36,-0.80
2023,10,28,08,37,-0.70
2023,10,28,08,38,-0.60
2023,10,28,08,39,-0.50
2023,10,28,08,40,-0.40
2023,10,28,08,41,-0.30
2023,10,28,08,42,-0.30
2023,10,28,08,43,-0.30
2023,10,28,08,44,-0.30
2023,10,28,08,45,-0.30
2023,10,28,08,46,-0.20
2023,10,28,08,47,-0.20
2023,10,28,08,48,-0.20
2023,10,28,08,49,-0.20
2023,10,28,08,50,-0.20
2023,10,28,08,51,-0.20
2023,10,28,08,52,-0.20
2023,10,28,08,53,-0.10
2023,10,28,08,54,-0.10
2023,10,28,08,55,-0.10
2023,10,28,08,56,0.00
2023,10,28,08,57,0.00
2023,10,28,08,58,0.00
2023,10,28,08,59,0.10
2023,10,28,09,00,0.10
2023,10,28,09,01,0.10
2023,10,28,09,02,0.10
2023,10,28,09,03,0.20
2023,10,28,09,04,0.30
2023,10,28,09,05,0.40
2023,10,28,09,06,0.50
2023,10,28,09,07,0.60
2023,10,28,09,08,0.60
2023,10,28,09,09,0.70
2023,10,28,09,10,0.80
2023,10,28,09,11,0.80
2023,10,28,09,12,0.90
2023,10,28,09,13,0.90
2023,10,28,09,14,1.00
2023,10,28,09,15,1.00
2023,10,28,09,16,1.10
2023,10,28,09,17,1.10
2023,10,28,09,18,1.10
2023,10,28,09,19,1.10
2023,10,28,09,20,1.20
2023,10,28,09,21,1.30
2023,10,28,09,22,1.40
2023,10,28,09,23,1.50
2023,10,28,09,24,1.50
2023,10,28,09,25,1.60
2023,10,28,09,26,1.70
2023,10,28,09,27,1.70
2023,10,28,09,28,1.80
2023,10,28,09,29,1.80
2023,10,28,09,30,1.90
2023,10,28,09,31,1.90
2023,10,28,09,32,2.00
2023,10,28,09,33,2.00
2023,10,28,09,34,2.10
2023,10,28,09,35,2.10
2023,10,28,09,36,2.10
2023,10,28,09,37,2.20
2023,10,28,09,38,2.30
2023,10,28,09,39,2.40
2023,10,28,09,40,2.50
2023,10,28,09,41,2.60
2023,10,28,09,42,2.70
2023,10,28,09,43,2.80
2023,10,28,09,44,2.80
2023,10,28,09,45,2.90
2023,10,28,09,46,3.00
2023,10,28,09,47,3.00
2023,10,28,09,48,3.10
2023,10,28,09,49,3.20
2023,10,28,09,50,3.30
2023,10,28,09,51,3.30
2023,10,28,09,52,3.40
2023,10,28,09,53,3.50
2023,10,28,09,54,3.60
2023,10,28,09,55,3.80
2023,10,28,09,56,3.80
2023,10,28,09,57,3.90
2023,10,28,09,58,4.00
2023,10,28,09,59,4.10
2023,10,28,10,00,4.10
2023,10,28,10,01,4.20
2023,10,28,10,02,4.20
2023,10,28,10,03,4.20
2023,10,28,10,04,4.20
2023,10,28,10,05,4.30
2023,10,28,10,06,4.30
2023,10,28,10,07,4.30
2023,10,28,10,08,4.40
2023,10,28,10,09,4.40
2023,10,28,10,10,4.50
2023,10,28,10,11,4.50
2023,10,28,10,12,4.60
2023,10,28,10,13,4.70
2023,10,28,10,14,4.70
2023,10,28,10,15,4.80
2023,10,28,10,16,4.80
2023,10,28,10,17,4.90
2023,10,28,10,18,5.00
2023,10,28,10,19,5.00
2023,10,28,10,20,5.00
2023,10,28,10,21,5.10
2023,10,28,10,22,5.10
2023,10,28,10,23,5.20
2023,10,28,10,24,5.20
2023,10,28,10,25,5.30
2023,10,28,10,26,5.30
2023,10,28,10,27,5.40
2023,10,28,10,28,5.40
2023,10,28,10,29,5.50
2023,10,28,10,30,5.50
2023,10,28,10,31,5.60
2023,10,28,10,32,5.60
2023,10,28,10,33,5.70
2023,10,28,10,34,5.80
2023,10,28,10,35,5.80
2023,10,28,10,36,5.80
2023,10,28,10,37,5.90
2023,10,28,10,38,5.90
2023,10,28,10,39,6.00
2023,10,28,10,40,6.00
2023,10,28,10,41,6.00
2023,10,28,10,42,6.00
2023,10,28,10,43,6.00
2023,10,28,10,44,6.10
2023,10,28,10,45,6.10
2023,10,28,10,46,6.20
2023,10,28,10,47,6.20
2023,10,28,10,48,6.30
2023,10,28,10,49,6.30
2023,10,28,10,50,6.20
2023,10,28,10,51,6.20
2023,10,28,10,52,6.20
2023,10,28,10,53,6.20
2023,10,28,10,54,6.20
2023,10,28,10,55,6.20
2023,10,28,10,56,6.20
2023,10,28,10,57,6.30
2023,10,28,10,58,6.30
2023,10,28,10,59,6.30
2023,10,28,11,00,6.30
2023,10,28,11,01,6.40
2023,10,28,11,02,6.40
2023,10,28,11,03,6.40
2023,10,28,11,04,6.50
2023,10,28,11,05,6.50
2023,10,28,11,06,6.50
2023,10,28,11,07,6.60
2023,10,28,11,08,6.60
2023,10,28,11,09,6.70
2023,10,28,11,10,6.70
2023,10,28,11,11,6.80
2023,10,28,11,12,6.80
2023,10,28,11,13,6.90
2023,10,28,11,14,7.00
2023,10,28,11,15,7.00
2023,10,28,11,16,7.10
2023,10,28,11,17,7.20
2023,10,28,11,18,7.20
2023,10,28,11,19,7.30
2023,10,28,11,20,7.30
2023,10,28,11,21,7.30
2023,10,28,11,22,7.30
2023,10,28,11,23,7.30
2023,10,28,11,24,7.30
2023,10,28,11,25,7.40
2023,10,28,11,26,7.40
2023,10,28,11,27,7.50
2023,10,28,11,28,7.50
2023,10,28,11,29,7.60
2023,10,28,11,30,7.60
2023,10,28,11,31,7.60
2023,10,28,11,32,7.70
2023,10,28,11,33,7.70
2023,10,28,11,34,7.70
2023,10,28,11,35,7.70
2023,10,28,11,36,7.80
2023,10,28,11,37,7.80
2023,10,28,11,38,7.80
2023,10,28,11,39,7.80
2023,10,28,11,40,7.90
2023,10,28,11,41,7.90
2023,10,28,11,42,7.90
2023,10,28,11,43,8.00
2023,10,28,11,44,8.00
2023,10,28,11,45,8.00
2023,10,28,11,46,8.00
2023,10,28,11,47,8.10
2023,10,28,11,48,8.10
2023,10,28,11,49,8.10
2023,10,28,11,50,8.10
2023,10,28,11,51,8.10
2023,10,28,11,52,8.10
2023,10,28,11,53,8.10
2023,10,28,11,54,8.10
2023,10,28,11,55,8.10
2023,10,28,11,56,8.10
2023,10,28,11,57,8.10
2023,10,28,11,58,8.10
2023,10,28,11,59,8.10
2023,10,28,12,00,8.10
2023,10,28,12,01,8.10
2023,10,28,12,02,8.20
2023,10,28,12,03,8.20
2023,10,28,12,04,8.20
2023,10,28,12,05,8.20
2023,10,28,12,06,8.20
2023,10,28,12,07,8.20
2023,10,28,12,08,8.20
2023,10,28,12,09,8.20
2023,10,28,12,10,8.20
2023,10,28,12,11,8.20
2023,10,28,12,12,8.20
2023,10,28,12,13,8.20
2023,10,28,12,14,8.20
2023,10,28,12,15,8.30
2023,10,28,12,16,8.30
2023,10,28,12,17,8.30
2023,10,28,12,18,8.40
2023,10,28,12,19,8.40
2023,10,28,12,20,8.40
2023,10,28,12,21,8.40
2023,10,28,12,22,8.40
2023,10,28,12,23,8.40
2023,10,28,12,24,8.40
2023,10,28,12,25,8.40
2023,10,28,12,26,8.40
2023,10,28,12,27,8.40
2023,10,28,12,28,8.40
2023,10,28,12,29,8.40
2023,10,28,12,30,8.50
2023,10,28,12,31,8.50
2023,10,28,12,32,8.50
2023,10,28,12,33,8.60
2023,10,28,12,34,8.60
2023,10,28,12,35,8.60
2023,10,28,12,36,8.60
2023,10,28,12,37,8.60
2023,10,28,12,38,8.60
2023,10,28,12,39,8.60
2023,10,28,12,40,8.60
2023,10,28,12,41,8.60
2023,10,28,12,42,8.60
2023,10,28,12,43,8.60
2023,10,28,12,44,8.60
2023,10,28,12,45,8.60
2023,10,28,12,46,8.60
2023,10,28,12,47,8.60
2023,10,28,12,48,8.60
2023,10,28,12,49,8.60
2023,10,28,12,50,8.60
2023,10,28,12,51,8.60
2023,10,28,12,52,8.60
2023,10,28,12,53,8.60
2023,10,28,12,54,8.60
2023,10,28,12,55,8.60
2023,10,28,12,56,8.60
2023,10,28,12,57,8.60
2023,10,28,12,58,8.70
2023,10,28,12,59,8.70
2023,10,28,13,00,8.70
2023,10,28,13,01,8.70
2023,10,28,13,02,8.70
2023,10,28,13,03,8.70
2023,10,28,13,04,8.70
2023,10,28,13,05,8.70
2023,10,28,13,06,8.80
2023,10,28,13,07,8.80
2023,10,28,13,08,8.80
2023,10,28,13,09,8.80
2023,10,28,13,10,8.80
2023,10,28,13,11,8.80
2023,10,28,13,12,8.80
2023,10,28,13,13,8.80
2023,10,28,13,14,8.80
2023,10,28,13,15,8.80
2023,10,28,13,16,8.80
2023,10,28,13,17,8.80
2023,10,28,13,18,8.80
2023,10,28,13,19,8.80
2023,10,28,13,20,8.90
2023,10,28,13,21,8.90
2023,10,28,13,22,8.90
2023,10,28,13,23,8.90
2023,10,28,13,24,8.90
2023,10,28,13,25,8.90
2023,10,28,13,26,8.90
2023,10,28,13,27,8.90
2023,10,28,13,28,8.90
2023,10,28,13,29,8.90
2023,10,28,13,30,8.90
2023,10,28,13,31,8.90
2023,10,28,13,32,9.00
2023,10,28,13,33,9.00
2023,10,28,13,34,9.00
2023,10,28,13,35,9.10
2023,10,28,13,36,9.10
2023,10,28,13,37,9.10
2023,10,28,13,38,9.20
2023,10,28,13,39,9.20
2023,10,28,13,40,9.20
2023,10,28,13,41,9.30
2023,10,28,13,42,9.30
2023,10,28,13,43,9.20
2023,10,28,13,44,9.20
2023,10,28,13,45,9.10
2023,10,28,13,46,9.10
2023,10,28,13,47,9.00
2023,10,28,13,48,9.00
2023,10,28,13,49,9.00
2023,10,28,13,50,9.00
2023,10,28,13,51,9.00
2023,10,28,13,52,9.00
2023,10,28,13,53,9.00
2023,10,28,13,54,9.00
2023,10,28,13,55,9.00
2023,10,28,13,56,9.10
2023,10,28,13,57,9.10
2023,10,28,13,58,9.00
2023,10,28,13,59,9.00
2023,10,28,14,00,9.00
2023,10,28,14,01,9.10
2023,10,28,14,02,9.10
2023,10,28,14,03,9.10
2023,10,28,14,04,9.10
2023,10,28,14,05,9.10
2023,10,28,14,06,9.10
2023,10,28,14,07,9.10
2023,10,28,14,08,9.20
2023,10,28,14,09,9.20
2023,10,28,14,10,9.20
2023,10,28,14,11,9.30
2023,10,28,14,12,9.30
2023,10,28,14,13,9.30
2023,10,28,14,14,9.30
2023,10,28,14,15,9.30
2023,10,28,14,16,9.30
2023,10,28,14,17,9.30
2023,10,28,14,18,9.30
2023,10,28,14,19,9.30
2023,10,28,14,20,9.30
2023,10,28,14,21,9.40
2023,10,28,14,22,9.40
2023,10,28,14,23,9.40
2023,10,28,14,24,9.40
2023,10,28,14,25,9.40
2023,10,28,14,26,9.40
2023,10,28,14,27,9.40
2023,10,28,14,28,9.40
2023,10,28,14,29,9.40
2023,10,28,14,30,9.40
2023,10,28,14,31,9.40
2023,10,28,14,32,9.40
2023,10,28,14,33,9.40
2023,10,28,14,34,9.40
2023,10,28,14,35,9.50
2023,10,28,14,36,9.50
2023,10,28,14,37,9.60
2023,10,28,14,38,9.60
2023,10,28,14,39,9.60
2023,10,28,14,40,9.60
2023,10,28,14,41,9.60
2023,10,28,14,42,9.60
2023,10,28,14,43,9.50
2023,10,28,14,44,9.50
2023,10,28,14,45,9.50
2023,10,28,14,46,9.50
2023,10,28,14,47,9.50
2023,10,28,14,48,9.60
2023,10,28,14,49,9.70
2023,10,28,14,50,9.70
2023,10,28,14,51,9.80
2023,10,28,14,52,9.80
2023,10,28,14,53,9.80
2023,10,28,14,54,9.90
2023,10,28,14,55,9.90
2023,10,28,14,56,9.90
2023,10,28,14,57,10.00
2023,10,28,14,58,10.00
2023,10,28,14,59,10.00
2023,10,28,15,00,10.00
2023,10,28,15,01,9.90
2023,10,28,15,02,9.90
2023,10,28,15,03,9.80
2023,10,28,15,04,9.80
2023,10,28,15,05,9.80
2023,10,28,15,06,9.90
2023,10,28,15,07,9.90
2023,10,28,15,08,9.90
2023,10,28,15,09,9.90
2023,10,28,15,10,9.90
2023,10,28,15,11,9.90
2023,10,28,15,12,9.90
2023,10,28,15,13,9.90
2023,10,28,15,14,9.90
2023,10,28,15,15,9.90
2023,10,28,15,16,9.90
2023,10,28,15,17,9.90
2023,10,28,15,18,9.90
2023,10,28,15,19,9.90
2023,10,28,15,20,9.80
2023,10,28,15,21,9.80
2023,10,28,15,22,9.80
2023,10,28,15,23,9.80
2023,10,28,15,24,9.90
2023,10,28,15,25,9.90
2023,10,28,15,26,10.00
2023,10,28,15,27,10.00
2023,10,28,15,28,10.10
2023,10,28,15,29,10.10
2023,10,28,15,30,10.20
2023,10,28,15,31,10.20
2023,10,28,15,32,10.20
2023,10,28,15,33,10.20
2023,10,28,15,34,10.20
2023,10,28,15,35,10.20
2023,10,28,15,36,10.20
2023,10,28,15,37,10.20
2023,10,28,15,38,10.20
2023,10,28,15,39,10.10
2023,10,28,15,40,10.10
2023,10,28,15,41,10.10
2023,10,28,15,42,10.10
2023,10,28,15,43,10.10
2023,10,28,15,44,10.10
2023,10,28,15,45,10.10
2023,10,28,15,46,10.10
2023,10,28,15,47,10.20
2023,10,28,15,48,10.20
2023,10,28,15,49,10.20
2023,10,28,15,50,10.10
2023,10,28,15,51,10.10
2023,10,28,15,52,10.10
2023,10,28,15,53,10.10
2023,10,28,15,54,10.00
2023,10,28,15,55,10.00
2023,10,28,15,56,9.90
2023,10,28,15,57,9.90
2023,10,28,15,58,9.90
2023,10,28,15,59,9.80
2023,10,28,16,00,9.80
2023,10,28,16,01,9.80
2023,10,28,16,02,9.90
2023,10,28,16,03,9.90
2023,10,28,16,04,9.90
2023,10,28,16,05,9.90
2023,10,28,16,06,9.90
2023,10,28,16,07,9.80
2023,10,28,16,08,9.80
2023,10,28,16,09,9.80
2023,10,28,16,10,9.80
2023,10,28,16,11,9.80
2023,10,28,16,12,9.80
2023,10,28,16,13,9.80
2023,10,28,16,14,9.80
2023,10,28,16,15,9.80
2023,10,28,16,16,9.80
2023,10,28,16,17,9.80
2023,10,28,16,18,9.80
2023,10,28,16,19,9.80
2023,10,28,16,20,9.70
2023,10,28,16,21,9.70
2023,10,28,16,22,9.70
2023,10,28,16,23,9.60
2023,10,28,16,24,9.60
2023,10,28,16,25,9.60
2023,10,28,16,26,9.50
2023,10,28,16,27,9.50
2023,10,28,16,28,9.40
2023,10,28,16,29,9.40
2023,10,28,16,30,9.40
2023,10,28,16,31,9.30
2023,10,28,16,32,9.20
2023,10,28,16,33,9.20
2023,10,28,16,34,9.20
2023,10,28,16,35,9.10
2023,10,28,16,36,9.10
2023,10,28,16,37,9.00
2023,10,28,16,38,9.00
2023,10,28,16,39,8.90
2023,10,28,16,40,8.90
2023,10,28,16,41,8.80
2023,10,28,16,42,8.80
2023,10,28,16,43,8.80
2023,10,28,16,44,8.80
2023,10,28,16,45,8.70
2023,10,28,16,46,8.70
2023,10,28,16,47,8.70
2023,10,28,16,48,8.70
2023,10,28,16,49,8.60
2023,10,28,16,50,8.60
2023,10,28,16,51,8.60
2023,10,28,16,52,8.60
2023,10,28,16,53,8.50
2023,10,28,16,54,8.50
2023,10,28,16,55,8.40
2023,10,28,16,56,8.40
2023,10,28,16,57,8.40
2023,10,28,16,58,8.40
2023,10,28,16,59,8.30
2023,10,28,17,00,8.30
2023,10,28,17,01,8.30
2023,10,28,17,02,8.30
2023,10,28,17,03,8.30
2023,10,28,17,04,8.30
2023,10,28,17,05,8.30
2023,10,28,17,06,8.30
2023,10,28,17,07,8.30
2023,10,28,17,08,8.30
2023,10,28,17,09,8.20
2023,10,28,17,10,8.20
2023,10,28,17,11,8.20
2023,10,28,17,12,8.20
2023,10,28,17,13,8.20
2023,10,28,17,14,8.20
2023,10,28,17,15,8.20
2023,10,28,17,16,8.20
2023,10,28,17,17,8.30
2023,10,28,17,18,8.30
2023,10,28,17,19,8.20
2023,10,28,17,20,8.20
2023,10,28,17,21,8.20
2023,10,28,17,22,8.20
2023,10,28,17,23,8.20
2023,10,28,17,24,8.20
2023,10,28,17,25,8.20
2023,10,28,17,26,8.20
2023,10,28,17,27,8.20
2023,10,28,17,28,8.10
2023,10,28,17,29,8.10
2023,10,28,17,30,8.10
2023,10,28,17,31,8.10
2023,10,28,17,32,8.10
2023,10,28,17,33,8.10
2023,10,28,17,34,8.00
2023,10,28,17,35,8.00
2023,10,28,17,36,8.00
2023,10,28,17,37,8.00
2023,10,28,17,38,8.00
2023,10,28,17,39,7.90
2023,10,28,17,40,7.90
2023,10,28,17,41,7.90
2023,10,28,17,42,7.90
2023,10,28,17,43,7.90
2023,10,28,17,44,7.90
2023,10,28,17,45,7.90
2023,10,28,17,46,7.90
2023,10,28,17,47,7.90
2023,10,28,17,48,7.90
2023,10,28,17,49,7.90
2023,10,28,17,50,7.80
2023,10,28,17,51,7.80
2023,10,28,17,52,7.80
2023,10,28,17,53,7.80
2023,10,28,17,54,7.80
2023,10,28,17,55,7.70
2023,10,28,17,56,7.70
2023,10,28,17,57,7.70
2023,10,28,17,58,7.70
2023,10,28,17,59,7.60
2023,10,28,18,00,7.60
2023,10,28,18,01,7.60
2023,10,28,18,02,7.50
2023,10,28,18,03,7.50
2023,10,28,18,04,7.40
2023,10,28,18,05,7.40
2023,10,28,18,06,7.30
2023,10,28,18,07,7.30
2023,10,28,18,08,7.20
2023,10,28,18,09,7.20
2023,10,28,18,10,7.20
2023,10,28,18,11,7.10
2023,10,28,18,12,7.10
2023,10,28,18,13,7.00
2023,10,28,18,14,7.00
2023,10,28,18,15,6.90
2023,10,28,18,16,6.90
2023,10,28,18,17,6.80
2023,10,28,18,18,6.80
2023,10,28,18,19,6.70
2023,10,28,18,20,6.70
2023,10,28,18,21,6.60
2023,10,28,18,22,6.50
2023,10,28,18,23,6.50
2023,10,28,18,24,6.40
2023,10,28,18,25,6.40
2023,10,28,18,26,6.30
2023,10,28,18,27,6.30
2023,10,28,18,28,6.30
2023,10,28,18,29,6.20
2023,10,28,18,30,6.20
2023,10,28,18,31,6.10
2023,10,28,18,32,6.10
2023,10,28,18,33,6.00
2023,10,28,18,34,5.90
2023,10,28,18,35,5.90
2023,10,28,18,36,5.80
2023,10,28,18,37,5.80
2023,10,28,18,38,5.70
2023,10,28,18,39,5.70
2023,10,28,18,40,5.60
2023,10,28,18,41,5.50
2023,10,28,18,42,5.40
2023,10,28,18,43,5.40
2023,10,28,18,44,5.30
2023,10,28,18,45,5.30
2023,10,28,18,46,5.20
2023,10,28,18,47,5.20
2023,10,28,18,48,5.20
2023,10,28,18,49,5.10
2023,10,28,18,50,5.10
2023,10,28,18,51,5.00
2023,10,28,18,52,5.00
2023,10,28,18,53,4.90
2023,10,28,18,54,4.90
2023,10,28,18,55,4.80
2023,10,28,18,56,4.70
2023,10,28,18,57,4.70
2023,10,28,18,58,4.60
2023,10,28,18,59,4.60
2023,10,28,19,00,4.50
2023,10,28,19,01,4.50
2023,10,28,19,02,4.40
2023,10,28,19,03,4.40
2023,10,28,19,04,4.40
2023,10,28,19,05,4.30
2023,10,28,19,06,4.30
2023,10,28,19,07,4.20